STARLINK-3450, 51734

Orbit data source: Space-Track

STARLINK-3450, 51734 is a payload satellite owned by SpaceX/Seattle (US) in LEO that was launched on Mon, 21 Feb 2022 UTC via an FALCON 9 launch vehicle from the Air Force Eastern Test Range (AFETR). Payload-class satellites include a variety of spacecraft equipped with specific instruments for various scientific and technological missions. These include communications satellites like Starlink; space stations such as the ISS; scientific satellites like the Hubble; Earth observation satellites from companies like Planet Labs, Umbra, and HawkEye 360; GPS; miniature CubeSats for education and research; and military/defense satellites.

Loading next visibility...
Identifier
51734, 2022-016W
Orbit
LEO
Country
Flag of USUS
Related business
Manufacturer
SpaceX/Seattle
Mission
Operational Commercial Communications
Bus & Motor
STARLINK, Unknown motor
Mass
297 kg wet, ~275 kg dry
Launch date (UTC)
2022-02-21 (4 years ago)
Launch vehicle
FALCON 9
Launch site
Air Force Eastern Test Range (AFETR)
Object type
Payload
Rocket body
Debris
Shape & HBR
Box + 1 Pan, 10.1 m
Radar Cross Section
13.562 m², Large (>1 m²)

Expand to show TLE details & history
Last TLE update: 2 days ago

TLE from 2 days ago
0 STARLINK-3450
1 51734U 22016W   26171.39047779  .00000227  00000-0  32364-4 0  9997
2 51734  53.1592 217.9640 0001269  87.9089 272.2048 15.08834127239069
Epoch: 2026-06-20T09:22Z
TLE epoch observation values (Epoch: 2026-06-20T09:22:17.281Z)
Latitude
0.00002°
Longitude
168.78623°
Altitude
540.619 km
Speed
7.593 km/s
True Right ascension
14h 31m 51s
True Declination
0° 00' 00"
Sunlit
Object was in full shadow at epoch
Visualization orbit readout
Latitude
Unknown
Longitude
Unknown
Altitude
Unknown
Speed
Unknown
Apparent Right ascension
Unknown
Apparent Declination
Unknown
Sunlit
N/A
Visualization observer readout
Local Sidereal Time
21:33:02
Azimuth
Unknown
Elevation
Unknown
Doppler factor
Unknown
Orbital elements
Apogee altitude
540.893 km
Perigee altitude
539.138 km
Semi-major axis
6,918.153 km
Eccentricity
0.00013
Inclination
53.1592°
RAAN
217.964°
Arg. of periapsis
87.9089°
True anomaly
272.19027°
Mean anomaly
272.2048°
Eccentric anomaly
272.19753°
Mean motion
3.77188 °/min
Orbital period
95.44 mins
BSTAR
0.000032364
Loading maneuver chart data...
Computing Atmospheric mass density...
Loading historical data...
Loading historical data...
Loading historical data...
Loading historical data...
Loading historical data...
Loading historical data...
Loading historical data...

Documentation

Showing up to 5 results
|